Time,TemperatureF,DewpointF,PressureIn,WindDirection,WindDirectionDegrees,WindSpeedMPH,WindSpeedGustMPH,Humidity,HourlyPrecipIn,Conditions,Clouds,dailyrainin,SolarRadiationWatts/m^2,SoftwareType,DateUTC
2013-08-31 00:00:00,73.7,66.4,29.69,East,90,0.0,0.0,78,0.00,,,0.00,0.00,VWS V14.01,2013-08-31 04:00:00,
2013-08-31 00:10:00,73.7,66.8,29.69,East,90,0.0,0.0,79,0.00,,,0.00,0.00,VWS V14.01,2013-08-31 04:10:00,
2013-08-31 00:20:00,73.7,66.4,29.69,East,90,0.0,0.0,78,0.00,,,0.00,0.00,VWS V14.01,2013-08-31 04:20:00,
2013-08-31 00:30:00,73.9,66.6,29.68,East,90,0.0,1.0,78,0.00,,,0.00,0.00,VWS V14.01,2013-08-31 04:30:00,
2013-08-31 00:40:00,73.9,66.2,29.68,East,90,0.0,0.0,77,0.00,,,0.00,0.00,VWS V14.01,2013-08-31 04:40:00,
2013-08-31 00:50:00,74.0,66.3,29.67,East,90,0.0,0.0,77,0.00,,,0.00,0.00,VWS V14.01,2013-08-31 04:50:00,
2013-08-31 01:00:00,74.0,66.3,29.67,East,90,0.0,1.0,77,0.00,,,0.00,0.00,VWS V14.01,2013-08-31 05:00:00,
2013-08-31 01:10:00,74.2,66.5,29.67,East,90,0.0,1.0,77,0.00,,,0.00,0.00,VWS V14.01,2013-08-31 05:10:00,
2013-08-31 01:20:00,74.4,66.3,29.66,East,90,0.0,1.0,76,0.00,,,0.00,0.00,VWS V14.01,2013-08-31 05:20:00,
2013-08-31 01:30:00,74.6,66.2,29.66,ENE,68,0.0,5.0,75,0.00,,,0.00,0.00,VWS V14.01,2013-08-31 05:30:00,
2013-08-31 01:40:00,74.7,66.3,29.66,SE,135,0.0,2.0,75,0.00,,,0.00,0.00,VWS V14.01,2013-08-31 05:40:00,
2013-08-31 01:50:00,74.8,66.3,29.66,SE,135,0.0,1.0,75,0.00,,,0.00,0.00,VWS V14.01,2013-08-31 05:50:00,
2013-08-31 02:00:00,74.9,66.4,29.67,SSE,158,0.0,3.0,75,0.00,,,0.00,0.00,VWS V14.01,2013-08-31 06:00:00,
2013-08-31 02:10:00,75.0,66.2,29.67,SSE,158,0.0,2.0,74,0.00,,,0.00,0.00,VWS V14.01,2013-08-31 06:10:00,
2013-08-31 02:20:00,75.2,66.3,29.67,South,180,0.0,3.0,74,0.00,,,0.00,0.00,VWS V14.01,2013-08-31 06:20:00,
2013-08-31 02:30:00,75.3,66.4,29.68,SSW,202,0.0,2.0,74,0.00,,,0.00,0.00,VWS V14.01,2013-08-31 06:30:00,
2013-08-31 02:40:00,75.3,66.4,29.68,SSW,202,0.0,2.0,74,0.00,,,0.00,0.00,VWS V14.01,2013-08-31 06:40:00,
2013-08-31 02:50:00,75.2,66.7,29.67,SSW,202,0.0,0.0,75,0.00,,,0.00,0.00,VWS V14.01,2013-08-31 06:50:00,
2013-08-31 03:00:00,75.1,67.4,29.70,SSW,202,0.0,1.0,77,0.00,,,0.00,0.00,VWS V14.01,2013-08-31 07:00:00,
2013-08-31 03:10:00,74.7,67.0,29.70,SW,225,0.0,3.0,77,0.00,,,0.00,0.00,VWS V14.01,2013-08-31 07:10:00,
2013-08-31 03:20:00,74.6,67.7,29.68,SE,135,1.0,7.0,79,0.00,,,0.00,0.00,VWS V14.01,2013-08-31 07:20:00,
2013-08-31 03:30:00,74.3,67.7,29.68,SE,135,0.0,1.0,80,0.00,,,0.00,0.00,VWS V14.01,2013-08-31 07:30:00,
2013-08-31 03:40:00,73.9,67.7,29.68,SE,135,0.0,0.0,81,0.00,,,0.00,0.00,VWS V14.01,2013-08-31 07:40:00,
2013-08-31 03:50:00,73.8,68.0,29.66,SE,135,0.0,0.0,82,0.00,,,0.00,0.00,VWS V14.01,2013-08-31 07:50:00,
2013-08-31 04:00:00,73.7,68.2,29.62,SE,135,0.0,1.0,83,0.01,,,0.01,0.00,VWS V14.01,2013-08-31 08:00:00,
2013-08-31 04:10:00,73.5,68.4,29.62,ESE,112,0.0,1.0,84,0.01,,,0.01,0.00,VWS V14.01,2013-08-31 08:10:00,
2013-08-31 04:20:00,73.3,68.5,29.66,NNE,22,0.0,3.0,85,0.02,,,0.02,0.00,VWS V14.01,2013-08-31 08:20:00,
2013-08-31 04:30:00,73.2,68.8,29.65,NNE,22,0.0,0.0,86,0.02,,,0.02,0.00,VWS V14.01,2013-08-31 08:30:00,
2013-08-31 04:40:00,73.0,68.9,29.65,NNE,22,0.0,0.0,87,0.02,,,0.02,0.00,VWS V14.01,2013-08-31 08:40:00,
2013-08-31 04:50:00,72.8,68.7,29.65,NNE,22,0.0,0.0,87,0.02,,,0.02,0.00,VWS V14.01,2013-08-31 08:50:00,
2013-08-31 05:00:00,72.7,68.9,29.65,NNE,22,0.0,0.0,88,0.02,,,0.02,0.00,VWS V14.01,2013-08-31 09:00:00,
2013-08-31 05:10:00,72.3,68.6,29.65,NNE,22,0.0,0.0,88,0.01,,,0.02,0.00,VWS V14.01,2013-08-31 09:10:00,
2013-08-31 05:20:00,72.0,68.3,29.66,NNE,22,0.0,0.0,88,0.01,,,0.02,0.00,VWS V14.01,2013-08-31 09:20:00,
2013-08-31 05:30:00,71.8,68.4,29.65,NNE,22,0.0,0.0,89,0.00,,,0.02,0.00,VWS V14.01,2013-08-31 09:30:00,
2013-08-31 05:40:00,71.6,68.2,29.65,NNE,22,0.0,0.0,89,0.00,,,0.02,0.00,VWS V14.01,2013-08-31 09:40:00,
2013-08-31 05:50:00,71.4,68.0,29.65,NNE,22,0.0,0.0,89,0.00,,,0.02,0.00,VWS V14.01,2013-08-31 09:50:00,
2013-08-31 06:00:00,71.2,67.8,29.66,NNE,22,0.0,0.0,89,0.00,,,0.02,0.00,VWS V14.01,2013-08-31 10:00:00,
2013-08-31 06:10:00,71.0,67.9,29.66,NNE,22,0.0,0.0,90,0.00,,,0.02,0.00,VWS V14.01,2013-08-31 10:10:00,
2013-08-31 06:20:00,70.9,67.8,29.67,NNE,22,0.0,0.0,90,0.00,,,0.02,0.00,VWS V14.01,2013-08-31 10:20:00,
2013-08-31 06:30:00,70.7,67.9,29.68,NNE,22,0.0,0.0,91,0.00,,,0.02,0.00,VWS V14.01,2013-08-31 10:30:00,
2013-08-31 06:40:00,70.4,67.7,29.68,NNE,22,0.0,0.0,91,0.00,,,0.02,0.00,VWS V14.01,2013-08-31 10:40:00,
2013-08-31 06:50:00,70.1,67.4,29.69,NNE,22,0.0,0.0,91,0.00,,,0.02,0.00,VWS V14.01,2013-08-31 10:50:00,
2013-08-31 07:00:00,69.9,67.2,29.70,NNE,22,0.0,0.0,91,0.00,,,0.02,0.00,VWS V14.01,2013-08-31 11:00:00,
2013-08-31 07:10:00,69.8,67.1,29.70,NNE,22,0.0,0.0,91,0.00,,,0.02,0.00,VWS V14.01,2013-08-31 11:10:00,
2013-08-31 07:20:00,69.7,67.3,29.70,NNE,22,0.0,0.0,92,0.00,,,0.02,0.00,VWS V14.01,2013-08-31 11:20:00,
2013-08-31 07:30:00,69.6,67.2,29.71,NNE,22,0.0,0.0,92,0.00,,,0.02,2.00,VWS V14.01,2013-08-31 11:30:00,
2013-08-31 07:53:00,70.1,67.7,29.72,SW,226,0.0,0.0,92,0.01,,,0.03,44.00,VWS V14.01,2013-08-31 11:53:00,
2013-08-31 07:58:00,70.6,68.5,29.72,SW,226,0.0,0.0,93,0.01,,,0.03,49.00,VWS V14.01,2013-08-31 11:58:00,
2013-08-31 08:00:00,70.8,68.7,29.73,SW,226,0.0,0.0,93,0.01,,,0.03,49.00,VWS V14.01,2013-08-31 12:00:00,
2013-08-31 08:03:00,70.9,68.8,29.73,SW,226,0.0,0.0,93,0.01,,,0.03,14.00,VWS V14.01,2013-08-31 12:03:00,
2013-08-31 08:08:00,71.1,68.7,29.73,SW,226,0.0,0.0,92,0.01,,,0.03,16.00,VWS V14.01,2013-08-31 12:08:00,
2013-08-31 08:10:00,71.1,69.0,29.73,SW,226,0.0,0.0,93,0.01,,,0.03,21.00,VWS V14.01,2013-08-31 12:10:00,
2013-08-31 08:13:00,71.1,69.0,29.73,SW,226,0.0,0.0,93,0.01,,,0.03,21.00,VWS V14.01,2013-08-31 12:13:00,
2013-08-31 08:18:00,71.1,69.0,29.73,SW,226,0.0,0.0,93,0.01,,,0.03,19.00,VWS V14.01,2013-08-31 12:18:00,
2013-08-31 08:20:00,71.1,68.7,29.73,SW,226,0.0,2.0,92,0.01,,,0.03,19.00,VWS V14.01,2013-08-31 12:20:00,
2013-08-31 08:23:00,71.1,68.7,29.73,SW,226,0.0,0.0,92,0.01,,,0.03,48.00,VWS V14.01,2013-08-31 12:23:00,
2013-08-31 08:28:00,71.1,69.0,29.73,SW,226,0.0,0.0,93,0.01,,,0.03,42.00,VWS V14.01,2013-08-31 12:28:00,
2013-08-31 08:30:00,71.1,69.0,29.74,SW,226,0.0,0.0,93,0.01,,,0.03,30.00,VWS V14.01,2013-08-31 12:30:00,
2013-08-31 08:33:00,71.1,69.0,29.74,SW,226,0.0,0.0,93,0.01,,,0.03,30.00,VWS V14.01,2013-08-31 12:33:00,
2013-08-31 08:38:00,71.1,69.0,29.74,SW,226,0.0,0.0,93,0.01,,,0.03,42.00,VWS V14.01,2013-08-31 12:38:00,
2013-08-31 08:40:00,71.3,69.2,29.74,SW,226,0.0,0.0,93,0.01,,,0.03,42.00,VWS V14.01,2013-08-31 12:40:00,
2013-08-31 08:43:00,71.3,68.9,29.74,SW,226,0.0,0.0,92,0.00,,,0.03,26.00,VWS V14.01,2013-08-31 12:43:00,
2013-08-31 08:48:00,71.3,68.9,29.74,SW,226,0.0,0.0,92,0.00,,,0.03,46.00,VWS V14.01,2013-08-31 12:48:00,
2013-08-31 08:50:00,71.3,68.9,29.74,SW,226,0.0,0.0,92,0.00,,,0.03,46.00,VWS V14.01,2013-08-31 12:50:00,
2013-08-31 08:53:00,71.3,69.2,29.74,SW,226,0.0,0.0,93,0.00,,,0.03,97.00,VWS V14.01,2013-08-31 12:53:00,
2013-08-31 08:58:00,71.5,69.4,29.74,SW,226,1.0,1.0,93,0.00,,,0.03,113.00,VWS V14.01,2013-08-31 12:58:00,
2013-08-31 09:00:00,71.5,69.4,29.74,SW,226,0.0,1.0,93,0.00,,,0.03,95.00,VWS V14.01,2013-08-31 13:00:00,
2013-08-31 09:03:00,71.6,69.5,29.74,SW,226,0.0,0.0,93,0.00,,BKN060,0.03,93.00,VWS V14.01,2013-08-31 13:03:00,
2013-08-31 09:08:00,71.8,69.7,29.74,SW,226,0.0,0.0,93,0.00,,BKN060,0.03,118.00,VWS V14.01,2013-08-31 13:08:00,
2013-08-31 09:10:00,72.0,69.9,29.74,SW,226,0.0,0.0,93,0.00,,,0.03,121.00,VWS V14.01,2013-08-31 13:10:00,
2013-08-31 09:13:00,72.0,69.9,29.74,SW,226,0.0,0.0,93,0.00,,BKN060,0.03,137.00,VWS V14.01,2013-08-31 13:13:00,
2013-08-31 09:18:00,72.1,70.0,29.74,SW,226,0.0,0.0,93,0.00,,BKN060,0.03,134.00,VWS V14.01,2013-08-31 13:18:00,
2013-08-31 09:20:00,72.1,70.0,29.74,SW,226,0.0,0.0,93,0.00,,,0.03,139.00,VWS V14.01,2013-08-31 13:20:00,
2013-08-31 09:23:00,72.3,69.8,29.74,SW,226,0.0,0.0,92,0.00,,BKN060,0.03,135.00,VWS V14.01,2013-08-31 13:23:00,
2013-08-31 09:28:00,72.3,69.8,29.74,SW,226,0.0,0.0,92,0.00,,BKN060,0.03,137.00,VWS V14.01,2013-08-31 13:28:00,
2013-08-31 09:30:00,72.5,70.1,29.74,SW,226,0.0,0.0,92,0.00,,,0.03,194.00,VWS V14.01,2013-08-31 13:30:00,
2013-08-31 09:33:00,72.7,70.2,29.74,SW,226,0.0,0.0,92,0.00,,BKN060,0.03,413.00,VWS V14.01,2013-08-31 13:33:00,
2013-08-31 09:38:00,73.3,70.8,29.74,SW,226,0.0,1.0,92,0.00,,BKN060,0.03,445.00,VWS V14.01,2013-08-31 13:38:00,
2013-08-31 09:40:00,73.5,70.4,29.74,SW,226,0.0,1.0,90,0.00,,,0.03,436.00,VWS V14.01,2013-08-31 13:40:00,
2013-08-31 09:43:00,73.7,70.3,29.74,SW,226,0.0,0.0,89,0.00,,BKN060,0.03,424.00,VWS V14.01,2013-08-31 13:43:00,
2013-08-31 09:48:00,74.4,69.9,29.73,SW,227,0.0,0.0,86,0.00,,BKN060,0.03,510.00,VWS V14.01,2013-08-31 13:48:00,
2013-08-31 09:50:00,75.1,70.6,29.73,SW,227,0.0,0.0,86,0.00,,,0.03,554.00,VWS V14.01,2013-08-31 13:50:00,
2013-08-31 09:53:00,75.3,70.1,29.73,SW,227,0.0,0.0,84,0.00,,BKN060,0.03,202.00,VWS V14.01,2013-08-31 13:53:00,
2013-08-31 09:58:00,75.8,69.9,29.73,SW,227,0.0,1.0,82,0.00,,BKN060,0.03,250.00,VWS V14.01,2013-08-31 13:58:00,
2013-08-31 10:00:00,76.1,70.2,29.73,SW,227,0.0,1.0,82,0.00,,,0.03,503.00,VWS V14.01,2013-08-31 14:00:00,
2013-08-31 10:03:00,76.5,70.2,29.73,SW,227,0.0,0.0,81,0.00,,OVC050,0.03,503.00,VWS V14.01,2013-08-31 14:03:00,
2013-08-31 10:08:00,77.2,70.2,29.73,SW,227,0.0,0.0,79,0.00,,OVC050,0.03,545.00,VWS V14.01,2013-08-31 14:08:00,
2013-08-31 10:10:00,77.6,70.2,29.73,SW,227,0.0,0.0,78,0.00,,,0.03,489.00,VWS V14.01,2013-08-31 14:10:00,
2013-08-31 10:13:00,77.9,70.1,29.73,SW,227,0.0,0.0,77,0.00,,OVC050,0.03,489.00,VWS V14.01,2013-08-31 14:13:00,
2013-08-31 10:18:00,78.6,70.4,29.73,SW,227,0.0,0.0,76,0.00,,OVC050,0.03,526.00,VWS V14.01,2013-08-31 14:18:00,
2013-08-31 10:20:00,78.8,69.8,29.73,SW,227,0.0,0.0,74,0.00,,,0.03,503.00,VWS V14.01,2013-08-31 14:20:00,
2013-08-31 10:23:00,79.0,70.0,29.73,SW,227,0.0,1.0,74,0.00,,OVC050,0.03,517.00,VWS V14.01,2013-08-31 14:23:00,
2013-08-31 10:28:00,79.4,68.8,29.73,SSW,193,0.0,1.0,70,0.00,,OVC050,0.03,531.00,VWS V14.01,2013-08-31 14:28:00,
2013-08-31 10:30:00,79.6,70.2,29.73,SSW,193,0.0,1.0,73,0.00,,,0.03,545.00,VWS V14.01,2013-08-31 14:30:00,
2013-08-31 10:33:00,79.8,69.2,29.73,SSW,195,0.0,0.0,70,0.00,,OVC050,0.03,544.00,VWS V14.01,2013-08-31 14:33:00,
2013-08-31 10:38:00,80.1,69.9,29.73,ENE,78,0.0,0.0,71,0.00,,OVC050,0.03,556.00,VWS V14.01,2013-08-31 14:38:00,
2013-08-31 10:40:00,80.5,70.7,29.73,East,79,0.0,0.0,72,0.00,,,0.03,549.00,VWS V14.01,2013-08-31 14:40:00,
2013-08-31 10:43:00,80.7,70.4,29.73,East,79,0.0,0.0,71,0.00,,OVC050,0.03,558.00,VWS V14.01,2013-08-31 14:43:00,
2013-08-31 10:48:00,81.1,70.0,29.73,SSE,164,0.0,1.0,69,0.00,,OVC050,0.03,568.00,VWS V14.01,2013-08-31 14:48:00,
2013-08-31 10:50:00,81.1,69.1,29.73,SSE,164,0.0,1.0,67,0.00,,,0.03,593.00,VWS V14.01,2013-08-31 14:50:00,
2013-08-31 10:53:00,81.2,69.6,29.73,South,178,0.0,0.0,68,0.00,,OVC050,0.03,586.00,VWS V14.01,2013-08-31 14:53:00,
2013-08-31 10:58:00,81.6,70.4,29.73,South,185,1.0,1.0,69,0.00,,OVC050,0.03,595.00,VWS V14.01,2013-08-31 14:58:00,
2013-08-31 11:00:00,81.6,68.2,29.73,South,189,0.0,3.0,64,0.00,,,0.03,626.00,VWS V14.01,2013-08-31 15:00:00,
2013-08-31 11:03:00,81.8,69.3,29.73,SW,223,0.0,0.0,66,0.00,,BKN060,0.03,567.00,VWS V14.01,2013-08-31 15:03:00,
2013-08-31 11:08:00,82.2,69.7,29.73,SW,220,0.0,0.0,66,0.00,,BKN060,0.03,637.00,VWS V14.01,2013-08-31 15:08:00,
2013-08-31 11:10:00,82.4,70.3,29.73,SW,220,0.0,0.0,67,0.00,,,0.03,450.00,VWS V14.01,2013-08-31 15:10:00,
2013-08-31 11:13:00,82.6,70.1,29.73,SW,220,0.0,0.0,66,0.00,,BKN060,0.03,480.00,VWS V14.01,2013-08-31 15:13:00,
2013-08-31 11:18:00,82.6,69.2,29.72,WNW,285,0.0,1.0,64,0.00,,BKN060,0.03,690.00,VWS V14.01,2013-08-31 15:18:00,
2013-08-31 11:20:00,82.2,68.8,29.72,WNW,285,0.0,1.0,64,0.00,,,0.03,757.00,VWS V14.01,2013-08-31 15:20:00,
2013-08-31 11:23:00,82.2,69.3,29.72,WNW,285,0.0,2.0,65,0.00,,BKN060,0.03,528.00,VWS V14.01,2013-08-31 15:23:00,
2013-08-31 11:28:00,82.4,69.0,29.72,SSW,212,0.0,2.0,64,0.00,,BKN060,0.03,424.00,VWS V14.01,2013-08-31 15:28:00,
2013-08-31 11:30:00,82.4,69.5,29.72,WSW,240,1.0,2.0,65,0.00,,,0.03,324.00,VWS V14.01,2013-08-31 15:30:00,
2013-08-31 11:33:00,82.2,68.8,29.72,WSW,239,0.0,1.0,64,0.00,,BKN060,0.03,296.00,VWS V14.01,2013-08-31 15:33:00,
2013-08-31 11:38:00,82.2,69.3,29.72,SW,216,0.0,1.0,65,0.00,,BKN060,0.03,278.00,VWS V14.01,2013-08-31 15:38:00,
2013-08-31 11:40:00,82.2,69.3,29.72,WNW,284,0.0,1.0,65,0.00,,,0.03,278.00,VWS V14.01,2013-08-31 15:40:00,
2013-08-31 11:43:00,82.4,69.5,29.72,WNW,284,0.0,0.0,65,0.00,,BKN060,0.03,278.00,VWS V14.01,2013-08-31 15:43:00,
2013-08-31 11:48:00,82.6,70.1,29.72,WNW,284,0.0,0.0,66,0.00,,BKN060,0.03,806.00,VWS V14.01,2013-08-31 15:48:00,
2013-08-31 11:50:00,82.6,67.8,29.72,SSW,203,0.0,4.0,61,0.00,,,0.03,806.00,VWS V14.01,2013-08-31 15:50:00,
2013-08-31 11:53:00,82.8,68.5,29.72,SSW,205,0.0,1.0,62,0.00,,BKN060,0.03,818.00,VWS V14.01,2013-08-31 15:53:00,
2013-08-31 11:58:00,82.8,67.5,29.72,WSW,258,0.0,3.0,60,0.00,,BKN060,0.03,421.00,VWS V14.01,2013-08-31 15:58:00,
2013-08-31 12:00:00,83.0,68.7,29.71,SW,220,0.0,3.0,62,0.00,,,0.03,354.00,VWS V14.01,2013-08-31 16:00:00,
2013-08-31 12:03:00,83.0,69.6,29.71,WSW,250,0.0,0.0,64,0.00,,BKN048,0.03,239.00,VWS V14.01,2013-08-31 16:03:00,
2013-08-31 12:08:00,82.6,69.2,29.71,West,274,0.0,2.0,64,0.00,,BKN048,0.03,283.00,VWS V14.01,2013-08-31 16:08:00,
2013-08-31 12:10:00,82.8,70.3,29.71,West,260,0.0,3.0,66,0.00,,,0.03,283.00,VWS V14.01,2013-08-31 16:10:00,
2013-08-31 12:13:00,82.8,70.3,29.71,West,260,0.0,0.0,66,0.00,,BKN048,0.03,246.00,VWS V14.01,2013-08-31 16:13:00,
2013-08-31 12:18:00,82.8,68.9,29.72,West,261,0.0,1.0,63,0.00,,BKN048,0.03,157.00,VWS V14.01,2013-08-31 16:18:00,
2013-08-31 12:20:00,82.4,68.6,29.72,West,261,0.0,1.0,63,0.00,,,0.03,192.00,VWS V14.01,2013-08-31 16:20:00,
2013-08-31 12:23:00,82.2,67.9,29.72,West,261,0.0,1.0,62,0.00,,BKN048,0.03,202.00,VWS V14.01,2013-08-31 16:23:00,
2013-08-31 12:28:00,82.4,69.0,29.72,West,261,0.0,1.0,64,0.00,,BKN048,0.03,174.00,VWS V14.01,2013-08-31 16:28:00,
2013-08-31 12:30:00,82.6,70.1,29.71,West,261,0.0,1.0,66,0.00,,,0.03,178.00,VWS V14.01,2013-08-31 16:30:00,
2013-08-31 12:33:00,82.6,70.1,29.71,West,261,0.0,0.0,66,0.00,,BKN048,0.03,158.00,VWS V14.01,2013-08-31 16:33:00,
2013-08-31 12:38:00,82.2,70.2,29.71,West,260,0.0,2.0,67,0.00,,BKN048,0.03,125.00,VWS V14.01,2013-08-31 16:38:00,
2013-08-31 12:40:00,81.6,69.6,29.71,West,270,0.0,2.0,67,0.00,,,0.03,139.00,VWS V14.01,2013-08-31 16:40:00,
2013-08-31 12:43:00,81.1,69.6,29.71,West,268,0.0,1.0,68,0.00,,BKN048,0.03,179.00,VWS V14.01,2013-08-31 16:43:00,
2013-08-31 12:48:00,80.7,70.4,29.72,West,268,0.0,1.0,71,0.00,,BKN048,0.03,241.00,VWS V14.01,2013-08-31 16:48:00,
2013-08-31 12:50:00,80.7,70.0,29.72,West,268,0.0,1.0,70,0.00,,,0.03,241.00,VWS V14.01,2013-08-31 16:50:00,
2013-08-31 12:53:00,80.7,70.4,29.72,West,277,0.0,2.0,71,0.00,,BKN048,0.03,241.00,VWS V14.01,2013-08-31 16:53:00,
2013-08-31 12:58:00,80.9,70.6,29.72,West,275,0.0,2.0,71,0.00,,BKN048,0.03,783.00,VWS V14.01,2013-08-31 16:58:00,
2013-08-31 13:00:00,81.1,70.0,29.72,West,272,0.0,2.0,69,0.00,,,0.03,783.00,VWS V14.01,2013-08-31 17:00:00,
2013-08-31 13:03:00,81.2,71.3,29.72,West,265,0.0,1.0,72,0.00,,BKN070,0.03,873.00,VWS V14.01,2013-08-31 17:03:00,
2013-08-31 13:08:00,81.4,70.3,29.72,WSW,251,1.0,3.0,69,0.00,,BKN070,0.03,871.00,VWS V14.01,2013-08-31 17:08:00,
2013-08-31 13:10:00,81.4,71.1,29.72,WSW,251,0.0,3.0,71,0.00,,,0.03,869.00,VWS V14.01,2013-08-31 17:10:00,
2013-08-31 13:13:00,81.6,71.3,29.72,SW,232,1.0,1.0,71,0.00,,BKN070,0.03,869.00,VWS V14.01,2013-08-31 17:13:00,
2013-08-31 13:18:00,81.8,70.6,29.71,WSW,253,0.0,1.0,69,0.00,,BKN070,0.03,815.00,VWS V14.01,2013-08-31 17:18:00,
2013-08-31 13:20:00,82.0,71.3,29.71,West,277,0.0,2.0,70,0.00,,,0.03,836.00,VWS V14.01,2013-08-31 17:20:00,
2013-08-31 13:23:00,81.8,69.8,29.71,SW,222,0.0,6.0,67,0.00,,BKN070,0.03,836.00,VWS V14.01,2013-08-31 17:23:00,
2013-08-31 13:28:00,81.4,70.3,29.71,WNW,285,0.0,6.0,69,0.00,,BKN070,0.03,836.00,VWS V14.01,2013-08-31 17:28:00,
2013-08-31 13:30:00,81.2,70.9,29.71,WNW,284,1.0,6.0,71,0.00,,,0.03,487.00,VWS V14.01,2013-08-31 17:30:00,
2013-08-31 13:33:00,81.2,70.9,29.71,WSW,239,0.0,1.0,71,0.00,,BKN070,0.03,394.00,VWS V14.01,2013-08-31 17:33:00,
2013-08-31 13:38:00,81.2,70.9,29.71,West,261,0.0,1.0,71,0.00,,BKN070,0.03,194.00,VWS V14.01,2013-08-31 17:38:00,
2013-08-31 13:40:00,81.2,71.3,29.71,SSW,208,0.0,1.0,72,0.00,,,0.03,192.00,VWS V14.01,2013-08-31 17:40:00,
2013-08-31 13:43:00,81.4,70.7,29.71,SSW,209,0.0,0.0,70,0.00,,BKN070,0.03,229.00,VWS V14.01,2013-08-31 17:43:00,
2013-08-31 13:48:00,81.1,70.4,29.71,WNW,291,1.0,4.0,70,0.00,,BKN070,0.03,174.00,VWS V14.01,2013-08-31 17:48:00,
2013-08-31 13:50:00,80.9,70.2,29.71,West,264,0.0,4.0,70,0.00,,,0.03,158.00,VWS V14.01,2013-08-31 17:50:00,
2013-08-31 13:53:00,80.7,70.0,29.71,West,263,0.0,1.0,70,0.00,,BKN070,0.03,187.00,VWS V14.01,2013-08-31 17:53:00,
2013-08-31 13:58:00,80.1,70.3,29.71,WNW,282,1.0,2.0,72,0.00,,BKN070,0.03,209.00,VWS V14.01,2013-08-31 17:58:00,
2013-08-31 14:00:00,79.9,69.7,29.71,West,274,1.0,4.0,71,0.00,,,0.03,148.00,VWS V14.01,2013-08-31 18:00:00,
2013-08-31 14:03:00,79.8,70.0,29.71,West,274,0.0,1.0,72,0.00,,OVC060,0.03,199.00,VWS V14.01,2013-08-31 18:03:00,
2013-08-31 14:08:00,79.9,71.7,29.71,WSW,253,0.0,1.0,76,0.00,,OVC060,0.03,195.00,VWS V14.01,2013-08-31 18:08:00,
2013-08-31 14:10:00,80.1,71.5,29.71,SSW,200,0.0,2.0,75,0.00,,,0.03,195.00,VWS V14.01,2013-08-31 18:10:00,
2013-08-31 14:13:00,80.1,70.7,29.71,WSW,253,0.0,1.0,73,0.00,,OVC060,0.03,195.00,VWS V14.01,2013-08-31 18:13:00,
2013-08-31 14:18:00,80.5,70.7,29.71,WSW,248,0.0,1.0,72,0.00,,OVC060,0.03,208.00,VWS V14.01,2013-08-31 18:18:00,
2013-08-31 14:20:00,80.5,70.2,29.71,WSW,254,1.0,2.0,71,0.00,,,0.03,206.00,VWS V14.01,2013-08-31 18:20:00,
2013-08-31 14:23:00,80.7,70.8,29.71,WSW,254,0.0,2.0,72,0.00,,OVC060,0.03,241.00,VWS V14.01,2013-08-31 18:23:00,
2013-08-31 14:28:00,80.7,70.4,29.71,WNW,294,0.0,2.0,71,0.00,,OVC060,0.03,188.00,VWS V14.01,2013-08-31 18:28:00,
2013-08-31 14:30:00,80.7,70.4,29.71,WNW,294,0.0,2.0,71,0.00,,,0.03,171.00,VWS V14.01,2013-08-31 18:30:00,
2013-08-31 14:33:00,80.7,70.4,29.71,WNW,294,0.0,0.0,71,0.00,,OVC060,0.03,128.00,VWS V14.01,2013-08-31 18:33:00,
2013-08-31 14:38:00,80.5,70.2,29.71,NE,37,0.0,1.0,71,0.00,,OVC060,0.03,109.00,VWS V14.01,2013-08-31 18:38:00,
2013-08-31 14:40:00,80.1,69.9,29.71,WSW,256,2.0,2.0,71,0.00,,,0.03,77.00,VWS V14.01,2013-08-31 18:40:00,
2013-08-31 14:43:00,79.6,69.8,29.71,SW,236,2.0,3.0,72,0.00,,OVC060,0.03,139.00,VWS V14.01,2013-08-31 18:43:00,
2013-08-31 14:48:00,78.8,69.4,29.71,WNW,291,0.0,3.0,73,0.00,,OVC060,0.03,99.00,VWS V14.01,2013-08-31 18:48:00,
2013-08-31 14:50:00,78.6,69.6,29.71,WNW,289,0.0,3.0,74,0.00,,,0.03,77.00,VWS V14.01,2013-08-31 18:50:00,
2013-08-31 14:53:00,78.3,69.7,29.71,WNW,289,0.0,1.0,75,0.00,,OVC060,0.03,70.00,VWS V14.01,2013-08-31 18:53:00,
2013-08-31 14:58:00,78.1,69.9,29.71,South,191,0.0,2.0,76,0.00,,OVC060,0.03,118.00,VWS V14.01,2013-08-31 18:58:00,
2013-08-31 15:00:00,78.1,69.9,29.72,South,191,0.0,2.0,76,0.00,,,0.03,84.00,VWS V14.01,2013-08-31 19:00:00,
2013-08-31 15:03:00,77.9,69.7,29.72,SSW,192,0.0,1.0,76,0.00,,BKN042,0.03,77.00,VWS V14.01,2013-08-31 19:03:00,
2013-08-31 15:07:00,77.9,69.7,29.72,SSW,192,0.0,1.0,76,0.00,,BKN042,0.03,99.00,VWS V14.01,2013-08-31 19:07:00,
2013-08-31 15:10:00,77.9,69.7,29.72,SW,236,2.0,2.0,76,0.00,,,0.03,255.00,VWS V14.01,2013-08-31 19:10:00,
2013-08-31 15:12:00,77.9,69.7,29.72,West,281,0.0,5.0,76,0.00,,BKN042,0.03,201.00,VWS V14.01,2013-08-31 19:12:00,
2013-08-31 15:17:00,77.9,69.7,29.72,West,271,3.0,7.0,76,0.00,,BKN042,0.03,127.00,VWS V14.01,2013-08-31 19:17:00,
2013-08-31 15:20:00,77.9,69.7,29.72,WNW,287,2.0,7.0,76,0.00,,,0.03,158.00,VWS V14.01,2013-08-31 19:20:00,
2013-08-31 15:22:00,77.9,69.7,29.72,West,272,0.0,4.0,76,0.00,,BKN042,0.03,202.00,VWS V14.01,2013-08-31 19:22:00,
2013-08-31 15:27:00,77.9,69.7,29.72,West,278,3.0,5.0,76,0.00,,BKN042,0.03,250.00,VWS V14.01,2013-08-31 19:27:00,
2013-08-31 15:30:00,77.9,69.7,29.72,WNW,299,1.0,5.0,76,0.00,,,0.03,271.00,VWS V14.01,2013-08-31 19:30:00,
2013-08-31 15:32:00,78.1,69.9,29.72,WSW,254,0.0,2.0,76,0.00,,BKN042,0.03,259.00,VWS V14.01,2013-08-31 19:32:00,
2013-08-31 15:37:00,78.3,70.1,29.72,WNW,298,2.0,7.0,76,0.00,,BKN042,0.03,215.00,VWS V14.01,2013-08-31 19:37:00,
2013-08-31 15:40:00,78.3,69.7,29.72,West,270,0.0,7.0,75,0.00,,,0.03,246.00,VWS V14.01,2013-08-31 19:40:00,
2013-08-31 15:42:00,78.3,70.1,29.72,WNW,291,2.0,4.0,76,0.00,,BKN042,0.03,336.00,VWS V14.01,2013-08-31 19:42:00,
2013-08-31 15:47:00,78.6,70.0,29.72,ESE,119,0.0,4.0,75,0.00,,BKN042,0.03,422.00,VWS V14.01,2013-08-31 19:47:00,
2013-08-31 15:50:00,79.0,70.8,29.72,ESE,121,1.0,4.0,76,0.00,,,0.03,625.00,VWS V14.01,2013-08-31 19:50:00,
2013-08-31 15:52:00,79.2,70.2,29.72,WSW,254,0.0,5.0,74,0.00,,BKN042,0.03,625.00,VWS V14.01,2013-08-31 19:52:00,
2013-08-31 15:57:00,79.6,70.2,29.72,WSW,246,0.0,5.0,73,0.00,,BKN042,0.03,160.00,VWS V14.01,2013-08-31 19:57:00,
2013-08-31 16:00:00,79.6,70.2,29.71,WSW,241,0.0,5.0,73,0.00,,,0.03,632.00,VWS V14.01,2013-08-31 20:00:00,
2013-08-31 16:02:00,79.8,70.4,29.71,SW,232,0.0,1.0,73,0.00,,OVC044,0.03,632.00,VWS V14.01,2013-08-31 20:02:00,
2013-08-31 16:07:00,79.6,69.8,29.71,West,272,0.0,1.0,72,0.00,,OVC044,0.03,250.00,VWS V14.01,2013-08-31 20:07:00,
2013-08-31 16:10:00,79.6,69.8,29.71,WNW,291,2.0,4.0,72,0.00,,,0.03,164.00,VWS V14.01,2013-08-31 20:10:00,
2013-08-31 16:12:00,79.0,69.2,29.71,West,281,5.0,6.0,72,0.00,,OVC044,0.03,93.00,VWS V14.01,2013-08-31 20:12:00,
2013-08-31 16:17:00,77.9,68.9,29.72,WNW,285,0.0,6.0,74,0.00,,OVC044,0.03,313.00,VWS V14.01,2013-08-31 20:17:00,
2013-08-31 16:20:00,77.9,69.3,29.72,West,275,0.0,6.0,75,0.00,,,0.03,600.00,VWS V14.01,2013-08-31 20:20:00,
2013-08-31 16:22:00,77.9,68.9,29.72,West,281,0.0,6.0,74,0.00,,OVC044,0.03,600.00,VWS V14.01,2013-08-31 20:22:00,
2013-08-31 16:27:00,77.9,68.9,29.72,WSW,243,0.0,6.0,74,0.00,,OVC044,0.03,100.00,VWS V14.01,2013-08-31 20:27:00,
2013-08-31 16:30:00,77.6,68.3,29.72,West,277,6.0,6.0,73,0.00,,,0.03,181.00,VWS V14.01,2013-08-31 20:30:00,
2013-08-31 16:32:00,77.4,68.9,29.72,West,275,0.0,6.0,75,0.00,,OVC044,0.03,181.00,VWS V14.01,2013-08-31 20:32:00,
2013-08-31 16:37:00,77.2,69.1,29.72,SSW,199,1.0,6.0,76,0.00,,OVC044,0.03,318.00,VWS V14.01,2013-08-31 20:37:00,
2013-08-31 16:40:00,77.2,69.1,29.72,WSW,239,0.0,6.0,76,0.00,,,0.03,153.00,VWS V14.01,2013-08-31 20:40:00,
2013-08-31 16:42:00,77.2,69.1,29.72,SW,236,0.0,0.0,76,0.00,,OVC044,0.03,472.00,VWS V14.01,2013-08-31 20:42:00,
2013-08-31 16:47:00,77.4,69.2,29.72,SSE,157,0.0,2.0,76,0.00,,OVC044,0.03,135.00,VWS V14.01,2013-08-31 20:47:00,
2013-08-31 16:50:00,77.6,69.4,29.72,SW,220,0.0,2.0,76,0.00,,,0.03,102.00,VWS V14.01,2013-08-31 20:50:00,
2013-08-31 16:52:00,77.6,69.4,29.72,WSW,237,1.0,5.0,76,0.00,,OVC044,0.03,118.00,VWS V14.01,2013-08-31 20:52:00,
2013-08-31 16:57:00,77.6,69.4,29.72,West,281,0.0,5.0,76,0.00,,OVC044,0.03,176.00,VWS V14.01,2013-08-31 20:57:00,
2013-08-31 17:00:00,77.6,69.4,29.71,SW,224,0.0,5.0,76,0.00,,,0.03,143.00,VWS V14.01,2013-08-31 21:00:00,
2013-08-31 17:02:00,77.7,69.5,29.71,West,261,5.0,6.0,76,0.00,,BKN035,0.03,106.00,VWS V14.01,2013-08-31 21:02:00,
2013-08-31 17:07:00,77.6,69.1,29.71,West,272,0.0,6.0,75,0.00,,BKN035,0.03,120.00,VWS V14.01,2013-08-31 21:07:00,
2013-08-31 17:10:00,77.6,69.4,29.71,West,272,0.0,6.0,76,0.00,,,0.03,118.00,VWS V14.01,2013-08-31 21:10:00,
2013-08-31 17:12:00,77.4,69.2,29.71,WNW,282,0.0,3.0,76,0.00,,BKN035,0.03,100.00,VWS V14.01,2013-08-31 21:12:00,
2013-08-31 17:17:00,77.2,69.4,29.72,West,270,4.0,6.0,77,0.00,,BKN035,0.03,139.00,VWS V14.01,2013-08-31 21:17:00,
2013-08-31 17:20:00,77.0,69.2,29.72,West,277,0.0,6.0,77,0.00,,,0.03,162.00,VWS V14.01,2013-08-31 21:20:00,
2013-08-31 17:22:00,77.0,69.6,29.72,WSW,248,1.0,2.0,78,0.00,,BKN035,0.03,116.00,VWS V14.01,2013-08-31 21:22:00,
2013-08-31 17:27:00,77.0,69.6,29.72,WSW,253,0.0,2.0,78,0.00,,BKN035,0.03,100.00,VWS V14.01,2013-08-31 21:27:00,
2013-08-31 17:30:00,76.8,69.1,29.71,West,272,1.0,4.0,77,0.00,,,0.03,104.00,VWS V14.01,2013-08-31 21:30:00,
2013-08-31 17:32:00,76.7,69.3,29.71,WNW,289,0.0,6.0,78,0.00,,BKN035,0.03,118.00,VWS V14.01,2013-08-31 21:32:00,
2013-08-31 17:37:00,76.5,69.1,29.71,West,260,6.0,6.0,78,0.00,,BKN035,0.03,139.00,VWS V14.01,2013-08-31 21:37:00,
2013-08-31 17:40:00,76.5,69.1,29.71,WNW,301,0.0,6.0,78,0.00,,,0.03,164.00,VWS V14.01,2013-08-31 21:40:00,
2013-08-31 17:42:00,76.3,69.3,29.71,WNW,288,0.0,3.0,79,0.00,,BKN035,0.03,192.00,VWS V14.01,2013-08-31 21:42:00,
2013-08-31 17:47:00,76.5,69.1,29.71,WSW,256,0.0,3.0,78,0.00,,BKN035,0.03,127.00,VWS V14.01,2013-08-31 21:47:00,
2013-08-31 17:50:00,76.5,69.5,29.71,WSW,251,0.0,3.0,79,0.00,,,0.03,137.00,VWS V14.01,2013-08-31 21:50:00,
2013-08-31 17:52:00,76.5,69.1,29.71,WSW,251,0.0,0.0,78,0.00,,BKN035,0.03,102.00,VWS V14.01,2013-08-31 21:52:00,
2013-08-31 17:57:00,76.5,69.1,29.71,West,270,1.0,4.0,78,0.00,,BKN035,0.03,104.00,VWS V14.01,2013-08-31 21:57:00,
2013-08-31 18:00:00,76.3,69.3,29.72,West,270,0.0,4.0,79,0.00,,,0.03,81.00,VWS V14.01,2013-08-31 22:00:00,
2013-08-31 18:02:00,76.3,69.3,29.72,West,270,0.0,2.0,79,0.00,,BKN040,0.03,74.00,VWS V14.01,2013-08-31 22:02:00,
2013-08-31 18:07:00,76.1,69.5,29.72,West,270,0.0,2.0,80,0.00,,BKN040,0.03,83.00,VWS V14.01,2013-08-31 22:07:00,
2013-08-31 18:10:00,76.1,69.5,29.72,West,270,0.0,2.0,80,0.00,,,0.03,72.00,VWS V14.01,2013-08-31 22:10:00,
2013-08-31 18:12:00,76.1,69.5,29.72,West,270,0.0,0.0,80,0.00,,BKN040,0.03,67.00,VWS V14.01,2013-08-31 22:12:00,
2013-08-31 18:17:00,76.1,69.5,29.71,West,270,0.0,2.0,80,0.00,,BKN040,0.03,79.00,VWS V14.01,2013-08-31 22:17:00,
2013-08-31 18:20:00,76.1,69.5,29.71,West,270,0.0,2.0,80,0.00,,,0.03,60.00,VWS V14.01,2013-08-31 22:20:00,
2013-08-31 18:22:00,76.3,69.7,29.71,West,270,0.0,0.0,80,0.00,,BKN040,0.03,86.00,VWS V14.01,2013-08-31 22:22:00,
2013-08-31 18:27:00,76.3,69.7,29.71,West,270,0.0,0.0,80,0.00,,BKN040,0.03,72.00,VWS V14.01,2013-08-31 22:27:00,
2013-08-31 18:30:00,76.3,69.7,29.70,West,270,0.0,0.0,80,0.00,,,0.03,55.00,VWS V14.01,2013-08-31 22:30:00,
2013-08-31 18:32:00,76.1,69.5,29.70,West,270,0.0,3.0,80,0.00,,BKN040,0.03,44.00,VWS V14.01,2013-08-31 22:32:00,
2013-08-31 18:37:00,76.0,69.4,29.70,West,270,0.0,3.0,80,0.00,,BKN040,0.03,39.00,VWS V14.01,2013-08-31 22:37:00,
2013-08-31 18:40:00,75.8,69.2,29.70,West,270,0.0,3.0,80,0.00,,,0.03,39.00,VWS V14.01,2013-08-31 22:40:00,
2013-08-31 18:42:00,75.8,69.6,29.70,West,270,0.0,0.0,81,0.00,,BKN040,0.03,44.00,VWS V14.01,2013-08-31 22:42:00,
2013-08-31 18:47:00,75.8,69.6,29.71,West,270,0.0,0.0,81,0.00,,BKN040,0.03,51.00,VWS V14.01,2013-08-31 22:47:00,
2013-08-31 18:50:00,75.6,69.4,29.71,West,270,0.0,1.0,81,0.00,,,0.03,44.00,VWS V14.01,2013-08-31 22:50:00,
2013-08-31 18:52:00,75.6,69.7,29.71,West,270,0.0,1.0,82,0.00,,BKN040,0.03,44.00,VWS V14.01,2013-08-31 22:52:00,
2013-08-31 18:57:00,75.4,69.5,29.71,West,270,0.0,1.0,82,0.00,,BKN040,0.03,26.00,VWS V14.01,2013-08-31 22:57:00,
2013-08-31 19:00:00,75.3,69.4,29.70,West,270,0.0,1.0,82,0.00,,,0.03,25.00,VWS V14.01,2013-08-31 23:00:00,
2013-08-31 19:03:00,75.3,69.4,29.70,West,270,0.0,0.0,82,0.00,,BKN040,0.03,25.00,VWS V14.01,2013-08-31 23:03:00,
2013-08-31 19:08:00,75.1,69.6,29.70,West,270,0.0,0.0,83,0.00,,BKN040,0.03,23.00,VWS V14.01,2013-08-31 23:08:00,
2013-08-31 19:10:00,75.1,69.6,29.70,West,270,0.0,0.0,83,0.00,,,0.03,23.00,VWS V14.01,2013-08-31 23:10:00,
2013-08-31 19:13:00,75.1,69.6,29.70,West,270,0.0,0.0,83,0.00,,BKN040,0.03,21.00,VWS V14.01,2013-08-31 23:13:00,
2013-08-31 19:18:00,74.9,69.4,29.70,West,270,0.0,0.0,83,0.00,,BKN040,0.03,21.00,VWS V14.01,2013-08-31 23:18:00,
2013-08-31 19:20:00,74.7,69.2,29.70,West,270,0.0,0.0,83,0.00,,,0.03,21.00,VWS V14.01,2013-08-31 23:20:00,
2013-08-31 19:23:00,74.7,69.2,29.70,West,270,0.0,0.0,83,0.00,,BKN040,0.03,21.00,VWS V14.01,2013-08-31 23:23:00,
2013-08-31 19:28:00,74.6,69.1,29.70,West,270,0.0,0.0,83,0.00,,BKN040,0.03,18.00,VWS V14.01,2013-08-31 23:28:00,
2013-08-31 19:30:00,74.4,68.9,29.70,West,270,0.0,0.0,83,0.00,,,0.03,18.00,VWS V14.01,2013-08-31 23:30:00,
2013-08-31 19:33:00,74.4,68.9,29.70,West,270,0.0,0.0,83,0.00,,BKN040,0.03,18.00,VWS V14.01,2013-08-31 23:33:00,
2013-08-31 19:38:00,74.2,69.1,29.70,West,270,0.0,0.0,84,0.00,,BKN040,0.03,14.00,VWS V14.01,2013-08-31 23:38:00,
2013-08-31 19:40:00,74.2,69.1,29.70,West,270,0.0,0.0,84,0.00,,,0.03,11.00,VWS V14.01,2013-08-31 23:40:00,
2013-08-31 19:43:00,74.2,69.1,29.70,West,270,0.0,0.0,84,0.00,,BKN040,0.03,11.00,VWS V14.01,2013-08-31 23:43:00,
2013-08-31 19:48:00,74.0,68.9,29.71,West,270,0.0,0.0,84,0.00,,BKN040,0.03,9.00,VWS V14.01,2013-08-31 23:48:00,
2013-08-31 19:50:00,74.0,68.9,29.71,West,270,0.0,0.0,84,0.00,,,0.03,5.00,VWS V14.01,2013-08-31 23:50:00,
2013-08-31 19:53:00,73.9,68.8,29.71,West,270,0.0,0.0,84,0.00,,BKN040,0.03,0.00,VWS V14.01,2013-08-31 23:53:00,
2013-08-31 19:58:00,73.9,68.8,29.71,West,270,0.0,0.0,84,0.00,,BKN040,0.03,0.00,VWS V14.01,2013-08-31 23:58:00,
2013-08-31 20:00:00,73.7,68.6,29.72,West,270,0.0,0.0,84,0.00,,,0.03,0.00,VWS V14.01,2013-09-01 00:00:00,
2013-08-31 20:03:00,73.7,68.6,29.72,West,270,0.0,0.0,84,0.00,,BKN150,0.03,0.00,VWS V14.01,2013-09-01 00:03:00,
2013-08-31 20:08:00,73.5,68.7,29.72,West,270,0.0,0.0,85,0.00,,BKN150,0.03,0.00,VWS V14.01,2013-09-01 00:08:00,
2013-08-31 20:10:00,73.5,68.7,29.72,West,270,0.0,0.0,85,0.00,,,0.03,0.00,VWS V14.01,2013-09-01 00:10:00,
2013-08-31 20:13:00,73.5,68.7,29.72,West,270,0.0,0.0,85,0.00,,BKN150,0.03,0.00,VWS V14.01,2013-09-01 00:13:00,
2013-08-31 20:18:00,73.3,68.2,29.72,West,270,0.0,0.0,84,0.00,,BKN150,0.03,0.00,VWS V14.01,2013-09-01 00:18:00,
2013-08-31 20:20:00,73.3,68.5,29.72,West,270,0.0,0.0,85,0.00,,,0.03,0.00,VWS V14.01,2013-09-01 00:20:00,
2013-08-31 20:23:00,73.2,68.4,29.72,West,270,0.0,0.0,85,0.00,,BKN150,0.03,0.00,VWS V14.01,2013-09-01 00:23:00,
2013-08-31 20:28:00,73.2,68.4,29.72,West,270,0.0,0.0,85,0.00,,BKN150,0.03,0.00,VWS V14.01,2013-09-01 00:28:00,
2013-08-31 20:30:00,73.0,68.2,29.74,West,270,0.0,0.0,85,0.00,,,0.03,0.00,VWS V14.01,2013-09-01 00:30:00,
2013-08-31 20:33:00,73.0,68.2,29.74,West,270,0.0,0.0,85,0.00,,BKN150,0.03,0.00,VWS V14.01,2013-09-01 00:33:00,
2013-08-31 20:38:00,73.0,68.2,29.74,West,270,0.0,0.0,85,0.00,,BKN150,0.03,0.00,VWS V14.01,2013-09-01 00:38:00,
2013-08-31 20:40:00,73.0,68.6,29.74,West,270,0.0,0.0,86,0.00,,,0.03,0.00,VWS V14.01,2013-09-01 00:40:00,
2013-08-31 20:43:00,73.0,68.6,29.74,West,270,0.0,0.0,86,0.00,,BKN150,0.03,0.00,VWS V14.01,2013-09-01 00:43:00,
2013-08-31 20:48:00,72.8,68.4,29.74,West,270,0.0,0.0,86,0.00,,BKN150,0.03,0.00,VWS V14.01,2013-09-01 00:48:00,
2013-08-31 20:50:00,72.8,68.4,29.74,West,270,0.0,0.0,86,0.00,,,0.03,0.00,VWS V14.01,2013-09-01 00:50:00,
2013-08-31 20:53:00,72.8,68.4,29.74,West,270,0.0,0.0,86,0.00,,BKN150,0.03,0.00,VWS V14.01,2013-09-01 00:53:00,
2013-08-31 20:58:00,72.7,68.3,29.74,West,270,0.0,0.0,86,0.00,,BKN150,0.03,0.00,VWS V14.01,2013-09-01 00:58:00,
2013-08-31 21:00:00,72.7,68.6,29.74,West,270,0.0,0.0,87,0.00,,,0.03,0.00,VWS V14.01,2013-09-01 01:00:00,
2013-08-31 21:03:00,72.7,68.6,29.74,West,270,0.0,0.0,87,0.00,,BKN150,0.03,0.00,VWS V14.01,2013-09-01 01:03:00,
2013-08-31 21:08:00,72.7,68.6,29.74,West,270,0.0,0.0,87,0.00,,BKN150,0.03,0.00,VWS V14.01,2013-09-01 01:08:00,
2013-08-31 21:10:00,72.7,68.6,29.74,North,0,0.0,0.0,87,0.00,,,0.03,0.00,VWS V14.01,2013-09-01 01:10:00,
2013-08-31 21:20:00,72.6,68.5,29.74,North,0,0.0,0.0,87,0.00,,,0.03,0.00,VWS V14.01,2013-09-01 01:20:00,
2013-08-31 21:30:00,72.5,68.4,29.74,North,0,0.0,0.0,87,0.00,,,0.03,0.00,VWS V14.01,2013-09-01 01:30:00,
2013-08-31 21:40:00,72.4,68.3,29.74,North,0,0.0,0.0,87,0.00,,,0.03,0.00,VWS V14.01,2013-09-01 01:40:00,
2013-08-31 21:50:00,72.3,68.2,29.73,North,0,0.0,0.0,87,0.00,,,0.03,0.00,VWS V14.01,2013-09-01 01:50:00,
2013-08-31 22:00:00,72.1,68.3,29.73,North,0,0.0,0.0,88,0.00,,,0.03,0.00,VWS V14.01,2013-09-01 02:00:00,
2013-08-31 22:10:00,72.0,68.3,29.73,North,0,0.0,0.0,88,0.00,,,0.03,0.00,VWS V14.01,2013-09-01 02:10:00,
2013-08-31 22:20:00,71.7,68.0,29.73,North,0,0.0,0.0,88,0.00,,,0.03,0.00,VWS V14.01,2013-09-01 02:20:00,
2013-08-31 22:30:00,71.5,67.8,29.73,North,0,0.0,0.0,88,0.00,,,0.03,0.00,VWS V14.01,2013-09-01 02:30:00,
2013-08-31 22:40:00,71.2,67.5,29.73,North,0,0.0,0.0,88,0.00,,,0.03,0.00,VWS V14.01,2013-09-01 02:40:00,
2013-08-31 22:50:00,70.9,67.2,29.73,North,0,0.0,0.0,88,0.00,,,0.03,0.00,VWS V14.01,2013-09-01 02:50:00,
2013-08-31 23:00:00,70.6,67.2,29.72,North,0,0.0,0.0,89,0.00,,,0.03,0.00,VWS V14.01,2013-09-01 03:00:00,
2013-08-31 23:10:00,70.4,67.0,29.72,North,0,0.0,0.0,89,0.00,,,0.03,0.00,VWS V14.01,2013-09-01 03:10:00,
2013-08-31 23:20:00,70.4,67.3,29.72,North,0,0.0,0.0,90,0.00,,,0.03,0.00,VWS V14.01,2013-09-01 03:20:00,
2013-08-31 23:30:00,70.5,67.4,29.72,North,0,0.0,0.0,90,0.00,,,0.03,0.00,VWS V14.01,2013-09-01 03:30:00,
2013-08-31 23:40:00,70.3,67.2,29.72,North,0,0.0,0.0,90,0.00,,,0.03,0.00,VWS V14.01,2013-09-01 03:40:00,
2013-08-31 23:50:00,69.9,66.8,29.72,North,0,0.0,0.0,90,0.00,,,0.03,0.00,VWS V14.01,2013-09-01 03:50:00,